SCP
0 0 0 -0 -0 -0 -0 -0 -0 -0 -0 -0 -0 -0 -0 -0 0 0 0 0 0 0 0 0 0 0 0 0 0 0 0 0 0 0 0 0 0 0 -0 -0 -0 -0 -0 -0
0 0 0 0 -0 -0 -0 -0 -0 -0 -0 -0 -0 -0 -0 -0 0 0 0 0 0 0 0 0 0 0 0 0 0 0 0 0 0 0 0 0 0 0 -0 -0 -0 -0 -0 -0
0 0 0 0 0 -0 -0 -0 -0 -0 -0 -0 -0 -0 -0 -0 0 0 0 0 0 0 0 0 0 0 0 0 0 0 0 0 0 0 0 0 0 0 -0 -0 -0 -0 -0 -0
0 0 0 0 0 0 0 0 -0 -0 -0 -0 -0 -0 0 -0 0 0 0 0 0 0 0 0 0 0 0 0 0 0 0 0 0 0 0 0 0 -0 -0 -0 -0 -0 -0 -0
0 0 0 0 0 0 0 0 -0 -0 -0 -0 -0 0 0 0 0 0 0 0 0 0 0 0 0 0 0 0 0 0 0 0 0 0 0 0 0 -0 -0 -0 -0 -0 -0 -0
0 0 0 0 0 0 0 0 0 0 0 0 -0 -0 0 0 0 0 0 0 0 0 0 0 0 0 0 0 0 0 0 0 0 0 0 0 0 0 -0 -0 -0 0 0 0
0 0 0 0 0 0 0 0 0 0 0 0 0 0 0 0 0 0 0 0 0 0 0 0 0 0 0 0 0 0 0 0 0 0 0 0 0 0 0 0 0 0 0 0
0 0 0 0 0 0 0 0 0 0 0 0 0 0 0 0 0 0 0 0 0 0 0 0 0 0 0 0 0 0 0 0 0 0 0 0 0 0 0 0 0 0 0 0
0 0 0 0 0 0 0 0 0 0 0 0 0 0 0 0 0 0 0 0 0 0 0 0 0 0 0 0 0 0 0 0 0 0 0 0 0 0 0 0 0 0 0 0
0 0 0 0 0 0 0 -0 0 0 0 0 0 0 0 0 0 0 0 0 0 0 0 0 0 0 0 0 0 0 0 0 0 0 0 0 0 0 0 0 0 0 0 0
0 0 0 0 0 0 0 -0 0 0 0 0 0 0 0 0 0 0 0 0 0 0 0 0 0 0 0 0 0 0 0 0 0 0 0 0 0 0 0 0 0 0 0 0
0 0 0 0 0 0 0 0 0 0 0 0 0 0 0 0 0 0 0 0 0 0 0 0 0 0 0 0 0 0 0 0 0 0 0 0 0 0 0 0 0 0 0 0
0 0 0 0 0 0 0 0 0 0 0 0 0 0 0 0 0 0 0 0 0 0 0 0 0 0 0 0 0 0 0 0 0 0 0 0 0 0 0 0 0 0 0 0
0 0 0 0 0 0 0 0 0 0 0 0 0 0 0 0 0 0 0 0 0 0 0 0 0 0 0 0 0 0 0 0 0 0 0 0 0 0 0 0 0 0 0 0
0 0 0 0 0 0 0 0 0 0 0 0 0 0 0 0 0 0 0 0 0 0 0 0 0 0 0 0 0 0 0 0 0 0 0 0 0 0 0 0 0 0 0 0
0 0 0 0 0 0 0 0 0 0 0 0 0 0 0 0 0 0 0 0 0 0 0 0 0 0 0 0 0 0 0 0 0 0 0 0 0 0 0 0 0 0 0 0
0 0 0 0 0 0 0 0 0 0 0 0 0 0 0 0 0 0 0 0 0 0 0 0 0 0 0 0 0 0 0 0 0 0 0 0 0 0 0 -0 -0 -0 0 0
0 0 0 0 0 0 0 0 0 0 0 0 0 0 0 0 0 0 0 0 0 0 0 0 0 0 0 0 0 0 0 -0 -0 0 0 0 0 0 0 -0 -0 -0 0 0
0 0 0 0 0 0 0 0 0 0 0 0 0 0 0 0 0 0 0 0 0 0 0 0 0 0 0 0 0 0 0 -0 -0 -0 0 0 0 0 0 0 -0 -0 0 0
0 0 0 0 0 0 0 0 0 0 0 0 0 0 0 0 0 0 0 0 0 0 0 0 0 0 0 0 0 0 0 -0 -0 -0 0 0 -0 -0 -0 0 0 0 0 0
0 0 0 0 0 0 0 0 0 0 0 0 0 0 0 0 0 0 0 0 0 0 0 0 0 0 0 0 0 0 -0 -0 -0 -0 0 0 -0 -0 -0 -0 0 0 0 0
0 0 0 0 0 0 0 0 0 0 0 0 0 0 0 0 0 0 0 0 0 0 0 0 0 0 0 0 0 0 -0 -0 -0 -0 0 -0 -0 -0 -0 0 0 0 0 0
0 0 0 0 0 0 0 0 0 0 0 0 0 0 0 0 0 0 0 0 0 0 0 0 0 0 0 0 -0 -0 -0 -0 -0 -0 -0 -0 -0 -0 -0 0 0 0 0 0
0 0 0 0 0 0 0 0 0 0 0 0 0 0 0 0 0 0 0 0 0 0 0 0 0 0 0 -0 -0 -0 -0 -0 -0 -0 -0 -0 -0 -0 -0 0 0 0 0 0
0 0 0 0 0 0 0 0 0 0 0 0 0 0 0 0 0 0 0 0 0 0 0 0 0 0 0 -0 -0 -0 -0 -0 -0 -0 -0 -0 -0 -0 -0 0 0 0 0 0
0 0 0 0 0 0 0 0 0 0 0 0 0 0 0 0 0 0 0 0 0 0 0 0 0 0 0 -0 -0 -0 -0 -0 -0 -0 -0 -0 -0 -0 0 0 0 0 0 0
Wind_Speed
2 4 3 2 2 2 2 3 2 1 2 3 4 4 6 8 9 10 10 10 10 10 9 8 8 8 8 8 7 7 7 6 5 3 3 2 2 2 2 2 2 2 2 2
5 3 1 1 2 3 4 4 3 2 2 3 3 4 4 7 10 10 10 10 10 10 10 9 9 9 9 9 8 8 7 7 6 4 3 2 2 1 1 1 2 1 2 2
3 2 2 4 4 4 4 4 3 2 1 3 3 4 6 6 8 8 9 9 10 10 11 11 11 10 10 9 9 7 8 8 7 6 4 3 3 2 3 2 2 1 1 1
1 1 4 4 3 3 1 1 2 3 4 2 3 2 4 6 7 9 10 10 11 11 11 10 11 11 11 10 9 9 8 8 8 7 6 6 4 3 2 2 2 2 2 2
2 2 3 2 1 1 1 2 3 3 4 3 4 4 2 6 8 9 9 10 11 10 10 11 11 11 10 9 8 8 8 8 8 8 7 6 4 3 2 2 3 3 2 2
2 1 1 0 2 2 4 4 3 4 4 4 3 4 3 5 7 7 8 9 10 10 10 10 9 9 8 8 8 8 9 8 8 8 8 7 6 5 4 4 3 3 2 2
4 4 4 3 4 5 6 5 3 4 4 2 2 4 3 2 4 7 7 8 9 10 9 9 9 9 9 9 9 9 9 9 9 9 9 8 7 6 6 5 4 3 2 2
4 4 5 5 5 4 5 6 3 2 1 1 4 4 1 0 2 4 5 6 8 9 9 9 9 8 8 9 9 9 10 9 9 9 9 7 7 5 4 4 4 3 2 2
3 2 3 3 3 4 4 4 3 2 1 2 2 2 1 1 2 4 5 6 7 8 8 9 9 9 8 9 9 9 9 9 9 9 8 7 7 6 5 5 4 3 3 3
3 2 3 3 4 3 4 2 4 4 3 2 2 2 1 1 2 4 6 7 7 7 7 8 8 8 8 7 8 8 9 9 8 8 7 6 6 6 5 5 5 4 4 4
5 4 4 5 6 5 5 5 4 3 3 3 1 1 2 1 1 3 5 6 6 6 7 7 7 7 7 7 7 7 8 8 7 7 7 7 6 6 6 5 4 4 4 4
3 4 4 4 1 2 5 5 6 5 3 3 3 0 3 1 1 2 3 4 5 6 6 7 7 7 7 7 7 7 8 8 7 7 7 6 6 6 6 5 5 5 5 4
4 5 5 5 6 5 5 6 6 5 4 4 4 1 3 1 2 2 3 3 4 5 6 6 7 7 7 7 7 7 7 7 7 6 6 7 7 6 6 5 5 5 5 5
4 6 6 4 2 2 5 6 7 7 5 5 6 5 2 1 1 1 2 3 4 5 6 6 6 7 7 7 6 6 6 6 6 6 6 6 6 6 6 5 5 5 4 4
5 5 5 5 5 5 6 7 8 9 8 6 5 5 4 3 2 2 3 4 4 5 5 6 6 6 7 7 6 6 6 6 6 6 6 6 6 5 5 5 5 4 4 4
4 5 5 5 5 6 7 7 8 8 8 8 7 7 4 2 2 3 4 5 5 5 5 5 6 6 7 7 6 6 6 6 6 6 6 5 5 5 5 5 5 4 4 4
4 5 6 6 5 6 9 8 9 8 8 8 8 5 3 3 2 3 4 5 5 5 5 6 6 6 7 7 7 6 6 6 6 6 5 5 5 5 5 5 5 5 5 4
7 6 5 5 6 9 2 1 5 7 8 8 7 5 4 4 2 2 3 4 5 5 5 5 5 6 6 6 6 6 6 6 6 6 5 5 5 5 5 5 5 5 4 4
8 7 6 5 7 7 5 5 6 7 7 6 7 6 5 4 4 4 3 3 4 4 4 5 5 6 6 6 6 6 6 6 6 5 5 5 6 5 5 5 5 4 4 4
7 8 7 7 8 7 3 2 3 6 7 4 4 4 4 5 5 3 2 2 3 3 3 4 5 5 6 6 6 6 6 6 5 5 5 5 5 5 5 5 4 3 3 3
8 8 10 10 9 6 1 2 5 8 1 3 4 4 4 4 1 2 2 2 3 4 4 4 5 5 5 6 6 6 5 4 4 4 4 4 5 5 5 4 4 4 3 3
8 7 9 9 10 7 3 5 6 1 3 2 2 3 3 2 2 3 2 3 4 4 5 5 5 5 5 5 5 5 4 3 3 4 4 4 5 4 4 4 4 4 4 4
8 7 5 6 5 1 4 4 2 2 1 1 2 2 3 3 3 3 3 3 4 5 5 5 5 5 5 5 4 5 4 4 4 4 4 4 4 4 4 4 4 3 3 3
6 5 7 8 7 5 5 5 4 4 2 2 1 2 3 3 3 3 3 3 3 4 4 4 5 5 5 4 4 3 4 4 5 5 4 4 4 4 4 3 3 3 3 3
6 6 8 10 7 6 6 5 4 3 2 2 2 2 2 3 3 3 3 3 3 3 4 4 4 5 5 5 4 4 4 4 4 4 4 4 3 3 3 3 1 2 2 1
8 9 10 8 6 7 6 5 5 4 4 3 2 2 2 3 3 3 3 3 3 4 4 4 4 4 4 4 4 3 4 4 4 3 3 3 3 3 3 3 2 3 1 2
Wind_Direction
171 198 189 187 227 263 212 199 189 136 147 195 206 207 193 188 197 201 198 197 197 196 191 188 188 189 189 189 189 179 179 172 167 163 166 156 139 126 100 79 74 77 64 70
174 182 180 181 188 199 208 194 175 133 141 227 225 236 216 202 207 207 206 203 202 200 195 191 193 192 197 194 196 193 188 181 176 172 170 168 151 142 105 114 98 80 79 79
182 106 160 195 180 191 214 222 200 177 165 208 249 234 206 199 209 210 217 217 211 206 202 195 194 195 196 198 197 197 194 185 182 176 171 166 161 178 168 157 128 89 90 97
127 179 181 190 186 208 209 161 189 196 227 224 239 252 205 197 203 209 214 215 211 207 207 199 196 199 199 198 197 197 193 189 183 180 186 187 193 190 177 159 142 146 143 135
153 171 190 198 166 205 88 122 182 212 239 241 223 251 212 188 211 210 209 211 208 205 204 201 200 201 201 194 195 198 191 188 186 188 190 202 203 190 173 165 158 162 142 154
174 177 285 45 103 138 146 159 171 211 235 237 227 242 236 197 218 214 204 202 200 197 197 198 196 197 195 189 191 194 191 188 188 194 197 205 202 197 188 189 179 177 156 166
170 174 164 164 154 169 206 223 211 205 207 213 164 243 248 238 238 234 216 202 193 192 190 189 186 189 188 187 190 191 191 192 192 197 202 203 204 202 201 199 191 196 178 174
196 184 188 205 230 211 214 250 271 259 241 177 190 235 248 350 252 230 212 198 188 186 187 188 186 188 188 188 189 192 193 196 194 199 201 200 198 205 202 203 198 200 194 177
211 161 144 197 232 235 212 222 284 284 260 252 208 217 236 170 179 180 179 178 180 183 185 187 187 189 189 189 191 194 194 195 194 198 198 199 198 200 198 198 199 197 193 180
234 208 174 167 190 210 274 225 212 231 240 227 214 226 213 121 161 166 173 176 176 177 180 183 184 188 190 189 191 191 195 194 192 195 195 195 201 197 195 193 192 192 188 182
236 221 183 190 219 208 191 208 226 234 261 270 237 115 58 311 244 186 179 177 177 177 178 180 181 186 186 180 179 184 187 187 186 190 191 190 191 189 188 190 188 191 188 187
229 241 222 208 171 277 239 237 232 242 225 250 269 68 78 254 237 201 179 169 171 176 175 174 174 176 178 179 180 185 184 183 183 186 185 187 183 183 188 187 189 191 185 188
184 234 226 198 187 194 223 230 234 246 246 240 244 205 100 189 164 165 177 171 168 167 166 165 169 174 176 178 181 184 183 182 179 181 185 188 188 188 190 191 190 192 191 189
243 246 257 265 300 225 217 217 221 230 241 242 241 256 253 250 202 180 187 187 172 165 164 164 169 172 173 175 177 180 181 179 177 179 186 192 193 190 190 189 189 192 194 195
238 253 253 271 282 271 255 237 220 227 243 252 259 263 274 270 258 227 194 176 172 171 168 170 173 171 172 171 173 175 178 175 175 180 187 191 190 185 185 182 185 185 189 198
228 242 248 250 241 241 254 248 235 234 239 240 251 264 270 257 247 223 200 185 180 178 175 174 176 172 173 172 175 178 178 176 174 178 182 178 182 179 180 181 181 182 184 190
220 229 245 247 237 246 247 240 230 224 225 229 240 246 221 230 241 237 216 202 192 182 178 179 181 179 176 176 176 177 175 172 176 180 177 174 177 176 180 177 178 181 184 186
233 236 247 253 245 247 259 203 231 233 237 235 243 247 232 226 227 244 229 214 202 186 180 181 182 179 177 171 172 173 173 175 178 181 178 174 176 177 176 177 182 190 190 184
235 232 239 247 252 258 246 225 214 228 238 236 232 227 215 197 195 200 194 212 212 202 192 184 182 173 167 164 169 173 175 175 178 182 184 178 177 175 175 179 187 190 190 192
206 222 232 233 248 252 232 169 221 236 230 202 220 214 202 200 216 174 143 184 186 171 171 169 166 162 160 159 166 173 173 177 182 185 187 179 177 176 180 183 184 179 186 196
195 205 222 233 245 254 283 189 206 228 226 159 204 204 201 214 276 88 113 129 132 135 136 143 150 154 155 157 166 171 169 176 181 180 176 173 175 179 178 177 177 178 179 183
225 217 219 227 238 236 157 194 222 299 60 142 180 195 203 195 140 135 124 120 122 126 134 141 144 143 144 154 164 165 166 171 168 168 170 174 173 170 168 168 174 178 177 183
234 242 241 238 251 306 200 233 294 308 228 174 170 179 176 164 155 147 139 131 131 135 138 146 147 142 140 149 163 163 158 163 163 162 167 172 169 163 166 167 168 174 183 195
221 240 241 242 243 242 236 232 248 258 258 232 201 173 173 167 157 150 144 140 135 139 139 149 152 147 145 148 157 158 156 164 162 158 158 164 166 162 163 166 172 179 186 195
234 218 234 242 245 246 234 232 232 243 254 244 210 185 188 179 170 160 153 151 147 143 146 154 155 152 155 154 154 156 158 163 163 157 154 159 157 155 155 147 135 195 187 211
226 230 236 245 243 247 244 232 230 230 235 229 214 202 192 188 178 174 167 162 158 155 155 157 156 161 162 156 154 157 163 171 168 159 154 155 156 154 156 151 126 69 94 104